CAPE
0 0 0 0 0 1 12 1 2 14 31 4 0 2 0 0 0 0 0 0 0 0 0 2 311 217 306 342 585 554 793 436 401 114 10 3 1 9 5 4 5 7 8 10 8 7 5 1 0
0 0 0 0 0 1 11 2 38 19 25 0 0 0 0 0 0 0 0 0 0 0 0 40 126 162 127 254 380 482 474 413 238 35 10 4 4 9 8 6 7 9 9 9 4 1 0 0 0
0 0 0 0 0 0 9 5 17 19 1 18 11 0 0 0 0 0 0 0 0 24 23 44 93 54 0 60 206 357 287 236 146 67 15 11 14 29 6 3 3 4 4 2 0 0 3 3 0
0 0 0 0 0 0 0 23 38 21 18 0 0 0 0 0 0 0 0 0 0 0 12 49 58 0 0 0 0 0 4 8 4 2 2 5 10 2 13 19 3 0 0 0 0 1 0 0 0
0 0 0 0 0 0 0 92 30 43 25 15 0 0 0 1 0 0 0 0 1 3 15 28 32 0 0 0 0 0 3 3 0 0 0 0 0 0 0 0 0 0 0 0 0 0 0 0 0
0 0 0 0 0 0 0 2 43 17 12 0 0 0 3 0 0 0 0 0 0 5 13 2 0 0 0 1 0 2 4 4 0 0 0 0 0 0 0 0 0 0 0 0 0 0 0 0 0
0 0 0 0 0 0 0 0 0 9 1 0 0 1 3 0 0 0 0 0 0 6 0 0 0 0 0 0 0 1 8 11 5 1 0 0 0 0 0 0 0 0 0 0 0 0 0 0 0
0 0 0 0 0 0 0 0 0 0 1 0 0 0 4 0 0 0 0 0 2 0 0 0 0 0 0 0 0 0 0 0 0 0 0 0 0 0 0 0 0 0 0 0 0 0 0 0 0
0 0 0 0 0 0 0 0 0 0 18 0 0 0 0 0 0 0 0 1 8 1 0 0 0 0 0 0 0 0 0 0 0 0 0 0 0 0 0 0 0 0 0 0 0 0 0 0 0
0 0 0 0 0 0 0 0 0 16 15 0 1 0 0 0 0 0 0 0 0 0 0 0 0 0 0 0 0 0 0 0 0 0 0 0 0 0 0 0 0 0 0 0 0 0 0 0 0
0 0 0 0 0 0 0 0 0 0 0 0 0 0 0 0 0 0 0 0 0 0 0 0 0 0 0 0 0 0 0 0 0 0 0 0 0 0 0 0 0 0 0 0 0 0 0 0 0
0 0 0 0 0 0 0 0 0 0 0 0 0 0 0 0 0 0 0 0 0 0 1 0 0 0 0 0 0 0 0 0 0 0 0 0 0 0 0 0 0 0 0 0 0 0 1 0 0
0 0 0 0 0 0 0 0 0 0 0 0 0 0 0 0 0 0 0 0 0 0 0 0 0 0 0 0 0 0 0 0 0 0 0 0 0 0 0 0 2 7 11 10 0 0 0 0 0
1 0 0 0 0 0 0 0 0 0 0 1 0 0 0 0 0 0 0 0 0 0 0 0 0 0 0 0 0 1 0 0 0 0 0 0 0 0 10 19 17 13 5 0 0 0 0 0 0
0 1 0 1 0 0 0 0 0 40 9 5 0 0 0 0 0 0 0 0 0 0 0 0 0 0 0 3 0 0 0 0 0 0 1 0 0 13 13 0 0 0 0 0 0 0 0 0 0
31 23 19 0 0 0 0 0 0 87 53 29 0 0 0 0 0 0 0 0 0 0 0 0 0 0 0 0 0 0 0 0 0 0 0 0 0 0 0 0 0 0 0 0 0 0 0 0 0
32 17 16 4 0 0 0 0 0 24 89 50 5 0 0 0 0 0 0 0 0 0 0 0 0 0 0 0 0 0 0 0 0 0 0 0 0 0 0 0 0 0 0 0 0 0 0 0 0
11 16 18 11 0 0 0 0 0 0 26 58 49 18 1 0 0 0 0 0 0 0 0 0 0 0 0 0 0 0 0 0 0 0 0 0 0 0 0 0 0 0 0 0 0 0 0 0 0
5 0 4 12 0 0 0 0 0 0 0 0 46 29 44 8 0 0 1 0 0 0 0 0 4 0 0 0 0 0 0 0 0 0 0 0 0 0 0 0 0 0 0 0 0 0 0 0 0
23 4 2 0 0 0 0 0 0 0 0 0 74 34 26 0 0 0 0 0 0 0 0 0 0 0 0 0 0 0 0 0 0 0 0 0 0 0 0 0 0 0 0 0 0 0 0 0 0
7 25 5 5 0 0 0 0 1 0 0 0 16 45 7 0 0 0 0 0 0 0 0 0 0 0 0 0 0 0 0 0 0 0 0 0 0 0 0 0 0 0 0 0 0 0 0 0 0
7 1 14 0 1 0 0 0 0 0 0 0 45 14 0 0 0 0 0 0 0 0 0 0 0 0 0 0 0 0 0 0 0 0 0 0 0 0 0 0 0 0 0 0 0 0 0 0 0
7 2 8 0 1 0 1 0 0 0 0 0 0 1 1 1 1 0 0 0 0 0 0 0 0 0 0 0 0 0 0 0 0 0 0 0 0 0 0 0 0 0 0 0 0 0 0 0 0
7 4 16 8 0 0 9 0 0 0 0 0 0 0 0 0 1 0 0 0 0 0 0 0 0 0 0 0 0 0 0 0 0 0 0 0 0 0 0 0 0 0 0 0 0 0 0 0 0
6 1 0 0 0 0 7 1 0 0 0 0 0 0 0 0 0 0 0 0 0 0 0 0 0 0 0 0 0 0 0 0 1 1 1 0 0 0 0 0 0 0 0 0 0 0 0 0 0
2 1 1 0 0 0 1 0 0 0 0 0 0 0 0 0 0 0 0 0 0 0 0 0 0 2 0 1 1 1 1 1 2 0 0 0 0 0 0 0 0 0 0 0 0 0 0 0 0
17 1 6 1 0 0 2 0 0 0 2 0 0 0 0 0 0 0 0 0 0 0 0 0 0 0 1 1 1 0 0 0 0 0 0 0 0 0 0 0 0 0 0 0 0 0 0 0 0
13 1 1 1 0 0 0 0 0 0 1 0 0 0 0 0 0 0 0 0 0 0 0 0 1 1 0 0 0 0 0 0 0 0 0 0 0 0 0 0 0 0 0 0 0 0 0 0 0
17 24 1 0 0 0 0 0 0 0 0 0 0 0 0 0 0 0 0 1 0 0 0 0 0 0 0 0 0 0 0 0 0 0 0 0 0 0 0 0 0 0 0 0 0 0 0 0 0
0 1 17 0 0 0 0 0 0 0 0 0 0 0 0 0 0 1 0 0 0 0 0 0 0 0 0 0 0 0 0 0 0 0 0 0 0 0 0 0 0 0 0 0 0 0 0 0 0
CIN
-0 -0 -0 -0 -0 -16 -46 -29 -87 -40 -73 -207 -0 -95 -0 -0 -0 -0 -0 -0 -0 -0 -0 -3 -4 -8 -0 -0 -0 -1 -0 -0 -0 -19 -82 -0 -0 -0 -0 -0 -0 -0 -0 -0 -0 -0 -0 -0 -0
-0 -0 -0 -0 -0 -10 -65 -96 -36 -75 -161 -0 -0 -0 -0 -0 -0 -0 -0 -0 -0 -0 -0 -3 -21 -11 -25 -1 -2 -1 -0 -0 -0 -42 -0 -0 -0 -0 -0 -0 -0 -0 -0 -0 -0 -0 -0 -0 -0
-0 -0 -0 -0 -0 -0 -61 -102 -88 -104 -25 -111 -171 -0 -0 -0 -0 -0 -0 -0 -0 -1 -35 -5 -50 -24 -0 -32 -1 -0 -0 -0 -5 -14 -0 -0 -0 -0 -0 -0 -0 -0 -0 -0 -0 -0 -0 -0 -0
-0 -0 -0 -0 -0 -0 -1 -97 -81 -87 -135 -0 -0 -0 -0 -0 -0 -0 -0 -0 -0 -0 -6 -2 -0 -0 -0 -0 -0 -0 -0 -0 -0 -0 -0 -0 -0 -0 -0 -0 -0 -0 -0 -0 -0 -0 -0 -0 -0
-0 -0 -0 -0 -0 -0 -0 -119 -103 -48 -96 -168 -0 -0 -0 -3 -0 -0 -0 -0 -0 -5 -14 -2 -1 -0 -0 -0 -0 -0 -0 -0 -0 -0 -0 -0 -0 -0 -0 -0 -0 -0 -0 -0 -0 -0 -0 -0 -0
-0 -0 -0 -0 -0 -0 -0 -64 -129 -72 -133 -20 -0 -0 -6 -0 -0 -0 -0 -0 -0 -3 -3 -1 -0 -0 -0 -0 -0 -0 -0 -0 -0 -0 -0 -0 -0 -0 -0 -0 -0 -0 -0 -0 -0 -0 -0 -0 -0
-0 -0 -0 -0 -0 -0 -0 -0 -18 -70 -10 -0 -0 -0 -4 -0 -0 -0 -0 -0 -0 -20 -0 -0 -0 -0 -0 -0 -0 -0 -0 -0 -0 -0 -0 -0 -0 -0 -0 -0 -0 -0 -0 -0 -0 -0 -0 -0 -0
-0 -0 -0 -0 -0 -0 -0 -0 -0 -5 -44 -0 -0 -0 -0 -0 -0 -0 -0 -0 -26 -0 -0 -0 -0 -0 -0 -0 -0 -0 -0 -0 -0 -0 -0 -0 -0 -0 -0 -0 -0 -0 -0 -0 -0 -0 -0 -0 -0
-0 -0 -0 -0 -0 -0 -0 -0 -0 -0 -140 -0 -0 -0 -0 -0 -0 -0 -0 -22 -16 -0 -0 -0 -0 -0 -0 -0 -0 -0 -0 -0 -0 -0 -0 -0 -0 -0 -0 -0 -0 -0 -0 -0 -0 -0 -0 -0 -0
-0 -0 -0 -0 -0 -0 -0 -0 -0 -93 -186 -0 -0 -0 -0 -0 -0 -0 -0 -0 -0 -0 -0 -0 -0 -0 -0 -0 -0 -0 -0 -0 -0 -0 -0 -0 -0 -0 -0 -0 -0 -0 -0 -0 -0 -0 -0 -0 -0
-0 -0 -0 -0 -0 -0 -0 -0 -0 -4 -0 -0 -0 -0 -0 -0 -0 -0 -0 -0 -0 -0 -0 -0 -0 -0 -0 -0 -0 -0 -0 -0 -0 -0 -0 -0 -0 -0 -0 -0 -0 -0 -0 -0 -0 -0 -0 -0 -0
-0 -0 -0 -0 -0 -0 -0 -0 -0 -0 -0 -0 -0 -0 -0 -0 -0 -0 -0 -0 -0 -0 -48 -0 -0 -0 -0 -0 -0 -0 -0 -0 -0 -0 -0 -0 -0 -0 -0 -0 -0 -0 -0 -0 -0 -0 -48 -0 -0
-0 -0 -0 -0 -0 -0 -0 -0 -0 -0 -0 -0 -0 -0 -0 -0 -0 -0 -0 -0 -0 -0 -0 -0 -0 -0 -0 -0 -0 -0 -0 -0 -0 -0 -0 -0 -0 -0 -0 -0 -47 -45 -52 -58 -29 -0 -0 -0 -0
-25 -0 -0 -0 -0 -0 -0 -0 -0 -0 -0 -0 -0 -0 -0 -0 -0 -0 -0 -0 -0 -0 -0 -0 -0 -0 -0 -0 -0 -22 -0 -0 -0 -0 -0 -0 -0 -0 -17 -13 -41 -63 -66 -0 -0 -0 -0 -0 -0
-29 -29 -0 -31 -0 -0 -0 -0 -0 -241 -242 -277 -0 -0 -0 -0 -0 -0 -0 -0 -0 -0 -0 -0 -0 -0 -0 -41 -2 -0 -0 -0 -0 -0 -56 -0 -3 -41 -37 -4 -0 -2 -0 -0 -0 -0 -0 -0 -0
-11 -16 -2 -0 -0 -0 -0 -0 -0 -196 -180 -222 -0 -0 -0 -0 -0 -0 -0 -0 -0 -0 -0 -0 -0 -0 -0 -0 -0 -0 -0 -0 -0 -0 -0 -0 -0 -0 -0 -0 -0 -0 -0 -0 -0 -0 -0 -0 -0
-1 -0 -0 -1 -0 -0 -0 -0 -0 -136 -140 -168 -243 -0 -0 -0 -0 -0 -0 -0 -0 -0 -0 -0 -0 -0 -0 -0 -0 -0 -0 -0 -0 -0 -0 -0 -0 -0 -0 -0 -0 -0 -0 -0 -0 -0 -0 -0 -0
-0 -0 -1 -1 -0 -0 -0 -0 -0 -0 -157 -168 -182 -218 -77 -0 -0 -0 -0 -0 -0 -0 -0 -0 -0 -0 -0 -0 -0 -0 -0 -0 -0 -0 -0 -0 -0 -0 -0 -0 -0 -0 -0 -0 -0 -0 -0 -0 -0
-1 -0 -4 -2 -0 -13 -0 -0 -0 -0 -0 -0 -165 -168 -174 -189 -0 -0 -20 -0 -0 -0 -0 -0 -76 -0 -0 -0 -0 -0 -0 -0 -0 -0 -0 -0 -0 -0 -0 -0 -0 -0 -0 -0 -0 -0 -0 -0 -0
-0 -1 -1 -1 -0 -1 -0 -0 -0 -0 -0 -0 -142 -161 -156 -0 -0 -0 -0 -0 -0 -0 -0 -0 -0 -0 -0 -0 -0 -0 -0 -0 -0 -0 -0 -0 -0 -0 -0 -0 -0 -0 -0 -0 -0 -0 -0 -0 -0
-0 -0 -0 -2 -0 -0 -0 -0 -43 -0 -0 -0 -102 -135 -120 -0 -0 -0 -0 -0 -0 -0 -0 -0 -0 -0 -0 -0 -0 -0 -0 -0 -0 -0 -0 -0 -0 -0 -0 -0 -0 -0 -0 -0 -0 -0 -0 -0 -0
-0 -0 -2 -0 -4 -1 -0 -0 -0 -0 -0 -0 -135 -135 -0 -0 -0 -0 -0 -0 -0 -0 -0 -0 -0 -0 -0 -0 -0 -0 -0 -0 -0 -0 -0 -0 -0 -0 -0 -0 -0 -0 -0 -0 -0 -0 -0 -0 -0
-0 -0 -0 -0 -2 -0 -0 -0 -0 -0 -0 -0 -0 -0 -0 -0 -0 -0 -0 -0 -0 -0 -0 -0 -0 -0 -0 -0 -0 -0 -0 -0 -0 -0 -0 -0 -0 -0 -0 -0 -0 -0 -0 -0 -0 -0 -0 -0 -0
-0 -0 -0 -0 -0 -0 -0 -0 -0 -0 -0 -0 -0 -0 -0 -0 -0 -0 -0 -0 -0 -0 -0 -0 -0 -0 -0 -0 -0 -0 -0 -0 -0 -0 -0 -0 -0 -0 -0 -0 -0 -0 -0 -0 -0 -0 -0 -0 -0
-0 -0 -0 -0 -0 -0 -0 -0 -0 -0 -0 -0 -0 -0 -0 -0 -0 -0 -0 -0 -0 -0 -0 -0 -0 -0 -0 -0 -0 -0 -0 -0 -0 -0 -0 -0 -0 -0 -0 -0 -0 -0 -0 -0 -0 -0 -0 -0 -0
-0 -0 -0 -0 -0 -0 -0 -0 -0 -0 -0 -0 -0 -0 -0 -0 -0 -0 -0 -0 -0 -0 -0 -0 -0 -0 -0 -0 -0 -0 -0 -0 -0 -0 -0 -0 -0 -0 -0 -0 -0 -0 -0 -0 -0 -0 -0 -0 -0
-0 -0 -0 -0 -0 -0 -0 -0 -0 -0 -0 -0 -0 -0 -0 -0 -0 -0 -0 -0 -0 -0 -0 -0 -0 -0 -0 -0 -0 -0 -0 -0 -0 -0 -0 -0 -0 -0 -0 -0 -0 -0 -0 -0 -0 -0 -0 -0 -0
-7 -13 -1 -0 -0 -0 -0 -0 -0 -0 -0 -0 -0 -0 -0 -0 -0 -0 -0 -0 -0 -0 -0 -0 -0 -0 -0 -0 -0 -0 -0 -0 -0 -0 -0 -0 -0 -0 -0 -0 -0 -0 -0 -0 -0 -0 -0 -0 -0
-8 -0 -3 -1 -0 -0 -0 -0 -0 -0 -0 -0 -0 -0 -0 -0 -0 -0 -0 -0 -0 -0 -0 -0 -0 -0 -0 -0 -0 -0 -0 -0 -0 -0 -0 -0 -0 -0 -0 -0 -0 -0 -0 -0 -0 -0 -0 -0 -0
-0 -6 -23 -2 -0 -0 -0 -0 -0 -0 -0 -0 -0 -0 -0 -0 -0 -0 -0 -0 -0 -0 -0 -0 -0 -0 -0 -0 -0 -0 -0 -0 -0 -0 -0 -0 -0 -0 -0 -0 -0 -0 -0 -0 -0 -0 -0 -0 -0
Wind_Speed
6 6 2 4 4 4 2 2 3 4 3 5 4 9 10 5 2 3 2 8 14 9 7 6 12 11 11 11 11 14 13 15 17 17 15 14 13 12 12 12 11 11 11 11 11 10 10 9 9
5 1 4 2 5 2 4 4 2 2 7 11 9 5 6 4 3 7 6 10 13 10 6 8 11 12 12 13 14 14 16 18 17 15 14 13 12 11 11 11 10 10 10 10 10 9 9 9 9
4 0 3 4 3 4 3 1 3 3 8 3 6 6 4 4 5 6 10 12 12 9 9 9 12 13 13 13 14 15 16 16 15 14 13 12 11 10 10 10 10 9 9 9 9 9 8 8 8
3 4 4 4 4 5 7 1 3 2 3 6 8 8 4 1 3 9 13 13 12 10 9 10 12 13 13 13 13 14 14 14 13 12 12 11 10 10 11 11 9 8 8 8 8 8 7 7 7
3 2 2 2 3 3 1 6 7 3 1 3 2 5 2 3 15 17 14 13 15 9 8 9 11 12 12 13 13 12 12 12 12 13 13 12 11 9 9 9 9 8 7 7 6 6 5 6 6
4 3 2 3 4 2 3 0 4 1 3 6 7 7 3 6 18 10 13 13 13 11 8 8 10 11 11 11 12 12 12 12 12 12 11 10 9 9 9 8 7 6 5 4 4 4 5 6 7
2 3 4 4 5 2 2 3 3 3 5 2 10 6 5 8 7 11 12 12 11 12 9 6 6 8 10 10 10 10 10 10 10 10 9 8 7 7 6 5 4 4 3 3 3 3 5 6 7
3 3 3 4 5 5 5 6 8 6 4 5 6 8 8 11 10 11 12 11 10 9 9 7 6 6 6 6 9 9 9 9 8 8 7 6 6 6 5 4 3 1 0 2 4 5 5 5 6
2 1 3 4 6 5 4 4 5 2 6 4 5 5 10 13 12 12 11 7 9 7 8 7 6 6 6 6 6 7 8 7 7 6 7 5 2 3 4 4 4 3 3 4 5 7 7 7 8
4 4 5 2 4 5 4 6 6 5 4 4 4 5 20 14 15 14 12 10 9 8 7 8 7 6 6 5 5 5 5 4 4 4 4 3 4 4 4 3 6 5 6 7 9 9 8 6 4
5 6 2 2 2 1 3 5 4 9 3 7 12 14 14 14 12 13 12 12 11 11 8 9 8 7 6 5 4 2 2 3 2 4 4 3 2 2 2 2 3 3 4 3 4 4 3 4 3
4 7 5 3 3 2 4 1 4 6 5 9 17 18 15 14 11 14 14 10 9 8 9 8 8 9 6 4 4 4 3 3 3 3 5 3 1 1 2 1 2 3 2 3 2 2 4 4 5
8 4 4 4 3 2 1 2 4 2 5 15 15 15 16 11 8 8 12 8 8 7 7 7 8 8 7 6 4 4 4 4 4 3 3 2 2 2 2 2 1 2 2 3 3 3 4 5 5
7 9 12 4 5 1 3 1 2 2 9 13 15 16 15 12 9 7 11 10 9 8 8 7 8 7 7 5 6 5 4 4 4 3 3 3 1 2 2 3 4 4 3 3 3 4 4 4 4
4 4 13 10 4 4 5 4 6 8 9 14 11 12 14 12 8 12 12 12 11 9 8 8 7 7 7 5 5 4 4 3 3 3 5 6 4 5 5 4 5 4 4 6 5 5 4 5 4
6 4 13 15 7 5 7 5 6 14 13 11 12 11 14 13 10 7 10 11 10 10 10 8 6 6 6 5 4 4 4 5 6 6 6 8 8 7 6 5 5 5 6 5 4 4 4 4 4
12 12 17 13 12 6 6 5 7 15 13 12 11 14 14 12 8 7 8 10 11 12 9 8 7 7 7 6 7 7 9 7 7 6 6 9 9 8 7 6 6 7 5 5 4 3 3 5 7
19 21 16 19 17 13 9 8 5 12 11 13 12 12 15 13 10 9 11 10 12 11 9 8 7 7 7 7 8 7 8 7 7 7 7 9 7 9 7 7 8 7 7 7 7 5 4 5 7
16 19 12 15 3 12 12 15 7 8 7 11 11 12 13 12 6 6 10 10 8 4 7 6 7 7 6 6 6 5 5 6 7 7 10 10 9 10 9 7 8 6 8 8 8 4 5 6 9
24 22 27 5 6 6 13 11 2 3 4 9 14 10 11 8 10 10 11 12 11 9 9 9 8 6 5 5 6 5 5 7 7 7 10 10 11 10 10 9 8 8 6 8 9 8 3 4 7
20 23 24 14 5 3 13 5 5 5 4 6 9 10 10 13 14 10 11 11 10 11 10 10 10 9 9 10 10 10 9 6 6 7 7 9 11 12 10 10 8 8 6 6 7 8 8 4 3
10 10 14 15 17 11 7 9 11 16 7 4 6 13 12 13 9 10 12 11 10 9 10 11 11 10 10 8 8 10 9 9 6 7 6 7 11 11 8 10 9 8 6 8 8 8 7 6 5
10 24 18 13 19 13 8 4 5 16 15 7 7 11 12 12 11 11 11 12 10 9 9 9 11 12 12 14 11 10 13 7 7 5 10 8 10 11 10 9 9 9 7 8 8 6 7 6 4
11 14 10 7 5 8 8 11 8 9 11 9 8 7 14 15 12 12 11 9 10 9 8 9 12 12 11 14 13 15 12 9 4 7 5 6 6 6 8 8 7 7 6 6 5 6 8 6 6
2 7 2 3 4 2 15 10 3 3 5 12 17 12 9 15 11 11 11 9 9 11 10 10 11 13 11 9 12 10 8 8 11 6 5 6 4 3 4 4 7 5 6 6 6 6 7 7 7
4 2 3 2 5 5 12 6 3 4 4 17 16 14 12 11 11 11 11 10 11 11 10 11 12 11 9 9 9 7 7 6 6 6 5 2 4 4 5 7 6 7 7 7 7 6 5 6 6
8 0 5 3 2 4 4 2 3 6 8 11 16 14 13 12 10 11 10 11 10 10 9 9 9 9 9 9 7 9 7 6 6 6 5 4 4 5 6 7 7 8 7 7 7 6 6 5 6
3 9 1 3 3 3 3 1 4 8 9 10 11 12 11 11 12 12 9 10 7 8 8 9 9 9 10 9 7 8 7 7 6 6 6 5 5 6 6 7 7 7 8 7 6 5 5 5 4
2 2 4 4 1 2 2 5 2 8 10 13 11 10 12 12 12 11 9 8 7 7 7 8 9 9 8 7 7 8 7 6 6 6 5 5 5 5 6 7 7 7 7 7 6 5 5 5 4
2 2 3 3 3 3 1 4 4 1 7 12 12 11 10 10 11 10 9 10 9 8 8 9 8 8 7 7 7 7 6 6 6 6 5 5 6 5 6 6 6 6 6 5 5 5 4 4 5
Wind_Direction
325 316 97 36 62 53 283 293 285 168 36 357 25 101 107 40 68 164 171 135 126 129 138 138 117 110 87 73 92 132 138 128 122 113 111 108 105 108 102 100 92 87 82 75 70 67 61 53 43
321 33 44 87 90 80 272 285 250 216 134 130 94 87 51 82 69 112 98 142 129 128 127 126 120 113 99 83 85 101 117 119 117 113 110 105 103 105 107 97 97 88 81 74 68 64 59 49 39
329 184 85 101 117 182 198 316 308 322 164 132 101 61 96 110 118 135 130 131 122 117 122 126 120 114 107 99 90 95 99 102 101 102 104 106 105 98 112 106 90 80 77 74 70 65 60 51 41
355 1 23 101 202 227 184 180 344 284 92 55 111 68 42 265 113 138 133 130 120 125 125 125 122 117 112 105 105 103 105 105 104 103 106 106 101 96 92 92 92 87 80 75 67 58 45 34 24
41 55 65 129 231 244 66 100 263 262 60 69 123 122 63 19 116 128 133 132 129 126 122 124 124 120 117 114 111 110 110 107 110 113 112 110 108 100 95 92 91 88 80 72 63 50 30 15 7
10 85 69 194 234 203 200 323 126 266 193 158 81 98 106 100 125 138 135 129 131 132 123 129 125 121 120 120 119 117 118 119 118 118 116 114 109 106 104 102 98 91 82 66 46 24 3 353 353
105 79 230 209 220 159 130 100 115 204 167 117 136 100 119 141 124 139 132 127 133 130 127 129 127 126 123 122 121 118 116 117 123 126 124 120 118 114 103 87 79 71 52 25 2 343 335 334 334
124 108 270 202 194 221 179 157 125 185 47 108 145 150 171 170 128 133 128 129 134 137 139 141 138 132 127 130 126 126 128 132 136 139 138 138 133 134 137 137 144 162 273 307 308 305 304 308 305
128 92 245 226 161 228 203 127 147 119 100 53 351 161 159 140 118 129 129 131 141 149 154 154 150 145 139 134 139 135 146 151 152 152 155 143 158 186 192 211 215 222 243 267 275 277 284 295 293
153 166 230 233 210 207 177 135 160 119 146 57 59 29 140 133 141 144 152 155 159 162 172 169 159 156 151 152 155 155 166 165 166 165 174 189 206 221 207 229 246 258 266 270 271 269 289 297 312
199 201 206 249 250 120 143 126 179 149 211 191 162 146 142 143 141 150 159 165 172 176 174 180 166 158 163 151 166 171 175 175 192 201 185 188 172 200 213 237 255 255 258 269 307 330 305 309 303
217 235 248 213 260 126 123 314 156 187 212 154 153 158 152 157 159 161 162 169 155 162 172 167 151 165 168 157 174 176 176 196 196 195 172 148 138 274 265 244 272 254 266 279 345 349 341 356 345
218 230 243 185 186 132 78 140 176 113 85 120 138 155 163 162 160 169 162 166 156 157 160 168 154 163 167 167 176 182 202 179 178 181 191 138 201 228 269 271 332 29 9 41 18 7 11 7 348
201 217 250 241 211 180 151 165 154 130 132 127 146 164 168 171 173 160 167 172 164 159 166 160 165 157 159 174 179 184 178 169 154 169 199 178 197 256 71 22 33 37 23 18 353 10 22 359 350
206 172 251 239 231 220 151 261 218 147 160 145 160 168 172 183 182 181 174 169 166 167 155 162 161 169 165 187 164 137 162 150 97 83 65 59 39 45 56 44 32 21 18 36 30 16 22 9 351
179 152 212 232 181 249 140 231 220 160 160 166 165 170 178 191 189 179 170 160 163 159 165 164 160 170 171 168 136 114 74 76 70 62 57 53 48 49 53 48 35 27 30 22 25 11 4 357 345
192 204 206 221 200 177 183 222 222 172 175 170 175 171 179 187 190 173 173 160 166 172 173 173 167 166 168 172 84 79 77 73 66 59 50 51 50 52 62 52 41 32 30 22 359 3 18 3 344
197 212 197 206 196 201 183 246 216 175 169 179 178 180 176 186 185 155 169 173 174 176 175 171 168 168 165 101 98 84 75 65 64 60 53 50 50 55 64 54 51 37 36 21 10 359 359 24 339
226 208 200 200 216 178 199 207 216 184 168 172 182 181 182 177 144 132 171 176 154 140 175 176 180 167 147 125 118 89 91 77 67 60 53 52 46 46 53 56 42 43 55 23 20 349 4 7 351
285 213 207 199 158 199 191 217 228 285 178 180 181 181 174 136 105 85 81 73 69 83 73 76 75 62 68 101 102 110 108 84 80 66 56 49 51 48 61 53 60 31 37 38 30 32 347 3 16
287 220 195 197 146 44 147 198 172 261 245 148 185 173 152 146 132 110 91 79 71 63 61 66 67 64 79 98 106 103 101 83 75 58 61 37 46 49 28 61 39 60 37 43 38 27 26 13 357
296 220 204 154 168 180 220 192 203 217 242 147 124 130 127 114 102 108 103 80 70 67 64 68 64 71 63 81 100 97 101 104 86 72 68 59 46 46 43 40 52 45 40 44 36 30 29 20 22
281 333 221 169 179 172 200 153 158 185 220 170 162 136 119 114 119 112 98 100 87 73 70 75 77 68 81 81 84 98 97 95 86 107 79 40 56 40 33 39 50 45 37 47 47 36 36 39 51
318 299 167 178 147 200 176 193 214 201 193 166 140 155 134 124 124 112 103 99 98 94 86 85 88 84 80 91 102 105 111 109 78 94 75 69 61 53 50 42 47 56 51 44 36 42 43 42 43
37 307 151 150 185 154 159 171 251 233 249 175 159 147 136 121 126 130 124 119 113 106 103 103 100 95 90 89 92 94 111 122 115 95 88 89 90 83 73 73 58 59 58 58 49 51 46 38 44
112 310 337 234 165 141 149 191 212 11 14 121 129 131 122 121 130 126 126 125 120 112 109 107 104 101 91 92 83 74 80 66 89 87 108 129 82 77 66 68 64 57 51 53 50 52 59 53 47
137 246 294 291 21 94 143 98 300 78 76 109 128 134 134 139 121 124 129 120 119 118 107 106 106 94 88 85 88 86 85 94 106 106 87 69 92 93 71 70 71 61 58 56 56 51 44 36 42
170 156 98 8 14 58 58 305 218 190 162 144 145 138 136 129 130 130 131 123 117 107 100 92 89 95 98 104 109 97 96 91 89 87 88 83 74 73 78 72 67 62 54 45 49 46 32 46 26
121 203 51 107 108 54 92 253 22 189 171 162 163 155 147 144 142 139 131 114 101 89 90 99 103 106 104 101 92 93 91 90 87 87 82 78 78 76 76 77 72 62 54 41 41 57 32 44 43
275 302 212 154 186 185 246 278 9 336 172 155 155 146 144 142 144 145 139 135 129 124 121 119 126 117 113 109 107 102 98 93 88 82 78 81 82 68 73 72 75 70 63 50 50 48 28 39 42